Location: Betzi
(47.2343°N, 9.5260°E)
Time: 22:57:47
(UTC+00:00)

Genesis I - Pass Details

Date: 27 May 2022
Orbit: 463 x 544 km, 64.5° (Epoch: 29 June)

Event Time Altitude Azimuth Distance (km) Brightness Sun altitude
Rises 02:35:53 0° 319° (NW) 2,715 6.9 -8.4°
Reaches altitude 10° 02:38:07 10° 316° (NW) 1,813 6.0 -8.2°
Maximum altitude 02:42:08 62° 237° (WSW) 608 3.3 -7.7°
Drops below altitude 10° 02:46:04 10° 156° (SSE) 1,769 5.7 -7.2°
Sets 02:48:14 0° 153° (SSE) 2,641 6.6 -6.9°
